This is the latest recevied weather packets stored in our database for station/object N0QV. If no packets are shown the sender has not sent any weather packets the latest 1 day(s).
| Time | Temp. | Humidity | Pressure | Rain* | Wind** | Luminosity | Snow |
|---|---|---|---|---|---|---|---|
| 1778031497 | 8.89° C | 40% | 1012.5 hPa | 0 mm | 0.89 m/s, 304° | 0 W/m² | - |
| 1778031195 | 8.89° C | 39% | 1012.4 hPa | 0 mm | 0.89 m/s, 277° | 0 W/m² | - |
| 1778030891 | 8.89° C | 39% | 1012.4 hPa | 0 mm | 1.79 m/s, 258° | 0 W/m² | - |
| 1778030588 | 9.44° C | 38% | 1012.4 hPa | 0 mm | 2.24 m/s, 315° | 0 W/m² | - |
| 1778030285 | 9.44° C | 38% | 1012.2 hPa | 0 mm | 1.34 m/s, 237° | 1 W/m² | - |
| 1778029981 | 9.44° C | 38% | 1012.3 hPa | 0 mm | 0.89 m/s, 274° | 3 W/m² | - |
| 1778029680 | 9.44° C | 38% | 1012.1 hPa | 0 mm | 1.34 m/s, 275° | 4 W/m² | - |
| 1778029377 | 9.44° C | 37% | 1012.2 hPa | 0 mm | 1.79 m/s, 280° | 7 W/m² | - |
| 1778029074 | 9.44° C | 38% | 1011.9 hPa | 0 mm | 0.45 m/s, 252° | 10 W/m² | - |
| 1778028771 | 9.44° C | 37% | 1012.1 hPa | 0 mm | 1.79 m/s, 266° | 15 W/m² | - |
| 1778028467 | 9.44° C | 36% | 1011.9 hPa | 0 mm | 2.68 m/s, 255° | 15 W/m² | - |
| 1778028165 | 10° C | 37% | 1012 hPa | 0 mm | 1.34 m/s, 273° | 17 W/m² | - |
| 1778027860 | 10° C | 37% | 1012 hPa | 0 mm | 1.79 m/s, 276° | 17 W/m² | - |
| 1778027557 | 10° C | 36% | 1011.9 hPa | 0 mm | 0.89 m/s, 258° | 18 W/m² | - |
| 1778027253 | 10° C | 37% | 1011.6 hPa | 0 mm | 1.34 m/s, 254° | 23 W/m² | - |
| 1778026949 | 10° C | 37% | 1011.9 hPa | 0 mm | 0.89 m/s, 286° | 31 W/m² | - |
| 1778026645 | 10° C | 36% | 1011.5 hPa | 0 mm | 2.24 m/s, 252° | 43 W/m² | - |
| 1778026343 | 10° C | 35% | 1011.6 hPa | 0 mm | 0.45 m/s, 294° | 54 W/m² | - |
| 1778026040 | 10° C | 34% | 1011.5 hPa | 0 mm | 2.24 m/s, 256° | 55 W/m² | - |
| 1778025737 | 10.56° C | 35% | 1011.6 hPa | 0 mm | 0.45 m/s, 294° | 44 W/m² | - |
| 1778025434 | 10.56° C | 34% | 1011.6 hPa | 0 mm | 1.34 m/s, 258° | 47 W/m² | - |
| 1778025132 | 10.56° C | 35% | 1011.4 hPa | 0 mm | 1.34 m/s, 249° | 58 W/m² | - |
| 1778024829 | 10.56° C | 35% | 1011.3 hPa | 0 mm | 0.45 m/s, 272° | 63 W/m² | - |
| 1778024526 | 10.56° C | 34% | 1011.6 hPa | 0 mm | 2.24 m/s, 221° | 70 W/m² | - |
| 1778024222 | 10.56° C | 34% | 1011.5 hPa | 0 mm | 1.79 m/s, 277° | 69 W/m² | - |
* Rain latest hour (hover to see other rain measurements)
** Current wind speed in m/s (hover to see current wind gust speed)